TimeEST,TemperatureF,Dew PointF,Humidity,Sea Level PressureIn,VisibilityMPH,Wind Direction,Wind SpeedMPH,Gust SpeedMPH,PrecipitationIn,Events,Conditions,WindDirDegrees,DateUTC
12:53 AM,23.0,17.1,78,30.02,10.0,NNW,9.2,-,N/A,,Overcast,330,2013-03-02 05:53:00
1:53 AM,23.0,18.0,81,30.01,10.0,North,6.9,-,N/A,,Overcast,360,2013-03-02 06:53:00
2:53 AM,23.0,17.1,78,30.00,10.0,NNE,4.6,-,N/A,,Overcast,20,2013-03-02 07:53:00
3:53 AM,24.1,17.1,75,29.99,10.0,Variable,3.5,-,N/A,,Overcast,0,2013-03-02 08:53:00
4:53 AM,24.1,17.1,75,29.99,10.0,NNW,4.6,-,N/A,,Overcast,340,2013-03-02 09:53:00
5:53 AM,24.1,17.1,75,29.99,9.0,WNW,3.5,-,0.00,Snow,Light Snow,300,2013-03-02 10:53:00
6:53 AM,24.1,17.1,75,30.00,10.0,NNW,4.6,-,0.00,,Overcast,340,2013-03-02 11:53:00
7:53 AM,23.0,16.0,74,30.00,6.0,North,6.9,-,0.00,,Haze,360,2013-03-02 12:53:00
8:53 AM,23.0,17.1,78,30.00,7.0,North,4.6,-,0.00,Snow,Light Snow,360,2013-03-02 13:53:00
9:53 AM,23.0,17.1,78,30.01,3.0,NNW,8.1,-,0.00,Snow,Light Snow,330,2013-03-02 14:53:00
10:24 AM,21.2,15.8,80,29.97,5.0,North,8.1,-,0.00,,Haze,360,2013-03-02 15:24:00
10:53 AM,21.9,16.0,78,30.01,10.0,North,8.1,-,0.00,,Overcast,350,2013-03-02 15:53:00
11:30 AM,21.2,15.8,80,29.97,10.0,NNW,5.8,-,N/A,,Overcast,340,2013-03-02 16:30:00
11:53 AM,21.9,16.0,78,30.02,6.0,North,6.9,-,N/A,,Haze,350,2013-03-02 16:53:00
12:53 PM,21.9,16.0,78,30.01,6.0,NNW,6.9,-,0.00,,Haze,330,2013-03-02 17:53:00
1:53 PM,24.1,17.1,75,29.99,10.0,NNW,8.1,-,N/A,,Overcast,330,2013-03-02 18:53:00
2:53 PM,24.1,17.1,75,29.99,10.0,North,8.1,-,N/A,,Overcast,350,2013-03-02 19:53:00
3:53 PM,25.0,18.0,75,29.98,9.0,NW,4.6,-,N/A,,Overcast,310,2013-03-02 20:53:00
4:53 PM,25.0,19.0,78,29.98,7.0,NW,8.1,-,0.00,,Overcast,310,2013-03-02 21:53:00
5:53 PM,25.0,19.0,78,29.98,8.0,NW,6.9,-,N/A,,Overcast,320,2013-03-02 22:53:00
6:07 PM,24.8,19.4,80,29.95,8.0,NNW,5.8,-,N/A,,Overcast,330,2013-03-02 23:07:00
6:44 PM,24.8,19.4,80,29.95,8.0,NNW,8.1,-,0.00,Snow,Light Snow,330,2013-03-02 23:44:00
6:53 PM,25.0,19.9,81,29.99,8.0,NNW,5.8,-,0.00,Snow,Light Snow,330,2013-03-02 23:53:00
8:53 PM,26.1,19.0,75,30.00,6.0,NNW,6.9,17.3,0.00,Snow,Light Snow,340,2013-03-03 01:53:00
9:53 PM,25.0,19.0,78,30.00,4.0,NNW,9.2,17.3,0.00,Snow,Light Snow,340,2013-03-03 02:53:00
10:20 PM,24.8,19.4,80,29.96,5.0,North,9.2,-,0.00,Snow,Light Snow,350,2013-03-03 03:20:00
10:46 PM,24.8,17.6,74,29.96,7.0,North,9.2,17.3,0.00,Snow,Light Snow,360,2013-03-03 03:46:00
10:53 PM,25.0,18.0,75,30.00,9.0,North,9.2,17.3,0.00,,Overcast,350,2013-03-03 03:53:00
11:44 PM,24.8,17.6,74,29.96,2.5,North,8.1,-,0.00,Snow,Light Snow,350,2013-03-03 04:44:00
11:53 PM,24.1,18.0,77,29.99,2.5,North,3.5,-,0.01,Snow,Light Snow,350,2013-03-03 04:53:00